DW9866 Weather Reports


Display with metric or nautical units.
time (UTC)temp
F
wind
direction
speed
MPH
gust
MPH
rain 1hr
in
rain 24hr
in
rain mn
in
humidity
%
barometer
mb
20210515071758 55 34 8.0 10.0 0.00 0.00 0.00 42 1022.9
20210515071259 55 34 9.0 11.0 0.00 0.00 0.00 42 1022.9
20210515070758 55 30 9.0 11.0 0.00 0.00 0.00 42 1022.9
20210515070258 55 36 9.0 11.0 0.00 0.00 0.00 42 1022.9
20210515065753 56 34 9.0 11.0 0.00 0.00 0.00 42 1022.9
20210515065246 56 36 8.0 11.0 0.00 0.00 0.00 42 1022.9
20210515064747 56 34 8.0 11.0 0.00 0.00 0.00 42 1022.8
20210515064246 56 37 8.0 12.0 0.00 0.00 0.00 42 1022.8
20210515063745 56 40 8.0 12.0 0.00 0.00 0.00 42 1022.8
20210515063242 56 30 8.0 11.0 0.00 0.00 0.00 42 1022.8
20210515062742 56 32 8.0 9.0 0.00 0.00 0.00 43 1022.7
20210515062240 56 32 9.0 11.0 0.00 0.00 0.00 43 1022.8
20210515061738 56 28 10.0 11.0 0.00 0.00 0.00 44 1022.7
20210515061233 56 19 10.0 11.0 0.00 0.00 0.00 44 1022.7
20210515060735 56 24 10.0 12.0 0.00 0.00 0.00 44 1022.7
20210515060223 56 19 9.0 12.0 0.00 0.00 0.00 44 1022.7
20210515055724 56 16 9.0 11.0 0.00 0.00 0.00 45 1022.8
20210515055220 56 18 9.0 11.0 0.00 0.00 0.00 45 1022.8
20210515054721 56 18 9.0 11.0 0.00 0.00 0.00 44 1022.7
20210515054220 57 9 8.0 11.0 0.00 0.00 0.00 43 1022.7
20210515053723 57 15 8.0 10.0 0.00 0.00 0.00 43 1022.8
20210515053219 57 18 8.0 10.0 0.00 0.00 0.00 43 1022.7
20210515052718 57 342 7.0 9.0 0.00 0.00 0.00 43 1022.8
20210515052215 57 8 7.0 8.0 0.00 0.00 0.00 42 1022.8
20210515051715 57 6 6.0 8.0 0.00 0.00 0.00 42 1022.8
20210515051213 58 339 4.0 7.0 0.00 0.00 0.00 40 1022.8
20210515050708 59 340 3.0 4.0 0.00 0.00 0.00 39 1022.8
20210515050211 59 336 3.0 4.0 0.00 0.00 0.00 39 1022.8
20210515045707 59 333 3.0 4.0 0.00 0.00 0.00 39 1022.8
20210515045204 59 333 3.0 4.0 0.00 0.00 0.00 38 1022.8
20210515044659 59 321 3.0 4.0 0.00 0.00 0.00 38 1022.8
20210515044202 59 316 3.0 4.0 0.00 0.00 0.00 38 1022.8
20210515043640 59 316 3.0 4.0 0.00 0.00 0.00 38 1022.8
20210515043126 59 321 2.0 3.0 0.00 0.00 0.00 38 1022.8
20210515042618 59 321 2.0 3.0 0.00 0.00 0.00 37 1022.8
20210515042115 59 324 2.0 3.0 0.00 0.00 0.00 37 1022.8
20210515041608 60 334 1.0 2.0 0.00 0.00 0.00 36 1022.8
20210515041110 60 340 1.0 2.0 0.00 0.00 0.00 36 1022.8
20210515040605 60 340 2.0 2.0 0.00 0.00 0.00 36 1022.8
20210515040106 60 343 2.0 3.0 0.00 0.00 0.00 37 1022.8
20210515035538 60 343 2.0 3.0 0.00 0.00 0.00 37 1022.8
20210515035037 60 342 3.0 4.0 0.00 0.00 0.00 37 1022.8
20210515034539 60 334 3.0 4.0 0.00 0.00 0.00 37 1022.8
20210515034038 60 318 3.0 4.0 0.00 0.00 0.00 37 1022.8
20210515033536 60 314 3.0 4.0 0.00 0.00 0.00 37 1022.8
20210515033019 60 318 3.0 5.0 0.00 0.00 0.00 37 1022.8
20210515032520 60 314 3.0 5.0 0.00 0.00 0.00 37 1022.8
20210515032013 60 314 3.0 5.0 0.00 0.00 0.00 37 1022.8
20210515031514 60 290 3.0 4.0 0.00 0.00 0.00 37 1022.8
20210515031013 60 288 3.0 4.0 0.00 0.00 0.00 37 1022.9
20210515030511 60 309 3.0 5.0 0.00 0.00 0.00 37 1022.9
20210515030004 60 302 3.0 5.0 0.00 0.00 0.00 37 1022.9
20210515025504 59 293 4.0 5.0 0.00 0.00 0.00 38 1022.9
20210515025004 59 278 4.0 5.0 0.00 0.00 0.00 40 1022.9
20210515024458 59 275 4.0 5.0 0.00 0.00 0.00 39 1022.9
20210515023948 59 274 4.0 5.0 0.00 0.00 0.00 39 1022.9
20210515023440 59 272 4.0 5.0 0.00 0.00 0.00 39 1022.9
20210515022939 59 269 3.0 5.0 0.00 0.00 0.00 40 1022.9
20210515022431 59 267 3.0 5.0 0.00 0.00 0.00 41 1023.0
20210515021929 59 250 2.0 5.0 0.00 0.00 0.00 40 1022.9
20210515021425 59 241 3.0 5.0 0.00 0.00 0.00 40 1023.0
20210515020926 59 236 3.0 5.0 0.00 0.00 0.00 41 1022.9
20210515020425 59 248 3.0 5.0 0.00 0.00 0.00 41 1022.9
20210515015919 59 236 3.0 5.0 0.00 0.00 0.00 41 1022.9
20210515015416 59 233 2.0 4.0 0.00 0.00 0.00 41 1022.9
20210515014916 59 226 2.0 4.0 0.00 0.00 0.00 41 1022.9
20210515014413 59 229 2.0 6.0 0.00 0.00 0.00 41 1022.8
20210515013913 59 233 3.0 7.0 0.00 0.00 0.00 41 1022.8
20210515013407 59 236 3.0 7.0 0.00 0.00 0.00 41 1022.8
20210515012904 59 221 3.0 6.0 0.00 0.00 0.00 40 1022.7
20210515012404 60 231 3.0 6.0 0.00 0.00 0.00 40 1022.6
20210515011902 60 242 4.0 6.0 0.00 0.00 0.00 40 1022.6
20210515011401 60 252 4.0 6.0 0.00 0.00 0.00 39 1022.6
20210515010902 60 236 4.0 6.0 0.00 0.00 0.00 39 1022.6
20210515010403 60 243 4.0 7.0 0.00 0.00 0.00 39 1022.4
20210515005902 60 233 5.0 8.0 0.00 0.00 0.00 39 1022.4
20210515005357 60 259 5.0 8.0 0.00 0.00 0.00 39 1022.4
20210515004852 60 264 5.0 7.0 0.00 0.00 0.00 39 1022.4
20210515004353 60 231 4.0 7.0 0.00 0.00 0.00 39 1022.4
20210515003850 60 252 4.0 7.0 0.00 0.00 0.00 39 1022.4
20210515003349 60 260 4.0 7.0 0.00 0.00 0.00 39 1022.3
20210515002848 60 246 5.0 8.0 0.00 0.00 0.00 39 1022.3
20210515002335 60 276 5.0 8.0 0.00 0.00 0.00 39 1022.2
20210515001838 60 264 5.0 8.0 0.00 0.00 0.00 39 1022.2
20210515001338 60 266 5.0 8.0 0.00 0.00 0.00 39 1022.2
20210515000837 60 265 5.0 7.0 0.00 0.00 0.00 39 1022.2
20210515000337 60 274 4.0 7.0 0.00 0.00 0.00 40 1022.2
20210514235830 60 268 4.0 7.0 0.00 0.00 0.00 40 1022.1
20210514235332 60 276 4.0 7.0 0.00 0.00 0.00 40 1022.1
20210514234825 60 278 4.0 7.0 0.00 0.00 0.00 39 1022.1
20210514234324 61 273 4.0 8.0 0.00 0.00 0.00 39 1022.1
20210514233819 61 273 5.0 9.0 0.00 0.00 0.00 39 1022.0
20210514233318 61 276 5.0 9.0 0.00 0.00 0.00 38 1022.0
20210514232819 62 275 5.0 9.0 0.00 0.00 0.00 38 1022.0
20210514232314 62 273 6.0 11.0 0.00 0.00 0.00 37 1021.9
20210514231811 62 287 7.0 12.0 0.00 0.00 0.00 37 1021.8
20210514231308 62 282 8.0 12.0 0.00 0.00 0.00 37 1021.8
20210514230805 63 295 8.0 12.0 0.00 0.00 0.00 37 1021.8
20210514230306 62 300 8.0 13.0 0.00 0.00 0.00 36 1021.8
20210514225801 62 296 8.0 13.0 0.00 0.00 0.00 36 1021.7
20210514225305 62 282 7.0 12.0 0.00 0.00 0.00 35 1021.7
20210514224757 62 316 6.0 12.0 0.00 0.00 0.00 36 1021.7
20210514224253 62 287 5.0 11.0 0.00 0.00 0.00 35 1021.7
20210514223752 62 302 5.0 10.0 0.00 0.00 0.00 33 1021.7
20210514223250 62 296 5.0 10.0 0.00 0.00 0.00 34 1021.7
20210514222752 62 288 4.0 9.0 0.00 0.00 0.00 33 1021.8
20210514222247 62 303 4.0 9.0 0.00 0.00 0.00 34 1021.7
20210514221746 62 290 5.0 10.0 0.00 0.00 0.00 35 1021.8
20210514221245 62 266 7.0 12.0 0.00 0.00 0.00 35 1021.8
20210514220745 63 308 7.0 12.0 0.00 0.00 0.00 35 1021.8
20210514220243 63 276 8.0 12.0 0.00 0.00 0.00 34 1021.8
20210514215741 63 274 9.0 14.0 0.00 0.00 0.00 34 1021.8
20210514215238 63 284 10.0 16.0 0.00 0.00 0.00 34 1021.8
20210514214736 63 293 10.0 16.0 0.00 0.00 0.00 34 1021.9
20210514214233 64 333 10.0 16.0 0.00 0.00 0.00 33 1021.8
20210514213734 64 307 9.0 16.0 0.00 0.00 0.00 34 1021.8
20210514213235 64 313 7.0 15.0 0.00 0.00 0.00 35 1021.8
20210514212727 64 306 8.0 15.0 0.00 0.00 0.00 35 1021.8
20210514212226 64 274 10.0 15.0 0.00 0.00 0.00 35 1021.9
20210514211727 63 306 11.0 17.0 0.00 0.00 0.00 36 1021.8
20210514211228 64 8 10.0 18.0 0.00 0.00 0.00 35 1021.8
20210514210727 64 274 10.0 18.0 0.00 0.00 0.00 35 1021.8
20210514210223 64 285 9.0 17.0 0.00 0.00 0.00 35 1021.8
20210514205722 65 280 9.0 17.0 0.00 0.00 0.00 34 1021.7
20210514205220 64 288 7.0 12.0 0.00 0.00 0.00 35 1021.8
20210514204720 63 285 8.0 20.0 0.00 0.00 0.00 34 1021.8
20210514204217 64 358 8.0 20.0 0.00 0.00 0.00 33 1021.9
20210514203721 63 333 7.0 13.0 0.00 0.00 0.00 34 1021.9
20210514203216 63 335 7.0 13.0 0.00 0.00 0.00 33 1021.9
20210514202714 63 320 8.0 17.0 0.00 0.00 0.00 31 1022.0
20210514202213 63 14 8.0 17.0 0.00 0.00 0.00 32 1022.0
20210514201712 64 281 7.0 13.0 0.00 0.00 0.00 32 1022.0
20210514201215 64 318 7.0 13.0 0.00 0.00 0.00 34 1022.1
20210514200712 63 291 9.0 16.0 0.00 0.00 0.00 33 1022.1
20210514200212 64 310 9.0 17.0 0.00 0.00 0.00 35 1022.1
20210514195708 64 297 8.0 17.0 0.00 0.00 0.00 34 1022.1
20210514195207 64 283 7.0 14.0 0.00 0.00 0.00 35 1022.2
20210514194708 64 288 9.0 16.0 0.00 0.00 0.00 34 1022.2
20210514194201 64 281 9.0 16.0 0.00 0.00 0.00 30 1022.3
20210514193659 63 240 8.0 14.0 0.00 0.00 0.00 31 1022.3
20210514193156 62 265 8.0 17.0 0.00 0.00 0.00 31 1022.4
20210514192655 62 267 9.0 18.0 0.00 0.00 0.00 31 1022.4
20210514192155 63 309 10.0 18.0 0.00 0.00 0.00 28 1022.6
20210514191649 63 278 9.0 18.0 0.00 0.00 0.00 28 1022.6
20210514191148 63 278 7.0 18.0 0.00 0.00 0.00 29 1022.7
20210514190644 63 311 7.0 15.0 0.00 0.00 0.00 29 1022.7
20210514190143 63 339 11.0 18.0 0.00 0.00 0.00 29 1022.8
20210514185641 63 334 11.0 18.0 0.00 0.00 0.00 29 1022.8
20210514185140 63 335 7.0 17.0 0.00 0.00 0.00 29 1022.7
20210514184636 62 2 6.0 16.0 0.00 0.00 0.00 31 1022.9
20210514184135 62 49 7.0 19.0 0.00 0.00 0.00 32 1022.9
20210514183632 62 53 10.0 19.0 0.00 0.00 0.00 32 1022.9
20210514183133 63 16 11.0 18.0 0.00 0.00 0.00 31 1022.9
20210514182632 62 14 10.0 18.0 0.00 0.00 0.00 32 1022.9
20210514182131 62 304 7.0 17.0 0.00 0.00 0.00 32 1023.0
20210514181621 62 65 7.0 16.0 0.00 0.00 0.00 32 1023.0
20210514181122 62 313 9.0 16.0 0.00 0.00 0.00 31 1023.1
20210514180624 62 307 8.0 15.0 0.00 0.00 0.00 31 1023.1
20210514180123 62 30 9.0 14.0 0.00 0.00 0.00 30 1023.2
20210514175622 63 22 7.0 14.0 0.00 0.00 0.00 30 1023.2
20210514175123 62 17 6.0 15.0 0.00 0.00 0.00 31 1023.3
20210514174614 62 17 8.0 15.0 0.00 0.00 0.00 32 1023.3
20210514174114 62 2 5.0 15.0 0.00 0.00 0.00 31 1023.3
20210514173615 62 32 5.0 16.0 0.00 0.00 0.00 35 1023.4
20210514173114 61 269 8.0 17.0 0.00 0.00 0.00 34 1023.5
20210514172614 62 328 9.0 19.0 0.00 0.00 0.00 29 1023.6
20210514172116 61 308 12.0 19.0 0.00 0.00 0.00 36 1023.5
20210514171617 61 15 12.0 19.0 0.00 0.00 0.00 35 1023.6
20210514171114 62 327 8.0 19.0 0.00 0.00 0.00 36 1023.6
20210514170612 61 282 7.0 19.0 0.00 0.00 0.00 34 1023.6
20210514170113 61 19 7.0 19.0 0.00 0.00 0.00 33 1023.7
20210514165613 60 319 9.0 16.0 0.00 0.00 0.00 37 1023.8
20210514165049 60 17 9.0 16.0 0.00 0.00 0.00 39 1023.9
20210514164548 60 11 9.0 18.0 0.00 0.00 0.00 39 1023.9
20210514164050 60 346 11.0 18.0 0.00 0.00 0.00 36 1023.9
20210514163549 59 295 10.0 21.0 0.00 0.00 0.00 36 1023.9
20210514163053 60 341 10.0 21.0 0.00 0.00 0.00 39 1023.9
20210514162546 60 5 10.0 18.0 0.00 0.00 0.00 40 1024.2
20210514162043 60 11 8.0 15.0 0.00 0.00 0.00 42 1024.0
20210514161543 60 341 9.0 14.0 0.00 0.00 0.00 45 1024.2
20210514161042 59 328 10.0 19.0 0.00 0.00 0.00 40 1024.3
20210514160543 59 336 11.0 19.0 0.00 0.00 0.00 42 1024.3
20210514160042 58 343 11.0 17.0 0.00 0.00 0.00 41 1024.3
20210514155540 59 317 10.0 16.0 0.00 0.00 0.00 45 1024.4
20210514155039 59 331 11.0 16.0 0.00 0.00 0.00 46 1024.3
20210514154536 58 315 11.0 17.0 0.00 0.00 0.00 47 1024.4
20210514154035 59 330 12.0 20.0 0.00 0.00 0.00 45 1024.4
20210514153530 58 16 11.0 20.0 0.00 0.00 0.00 47 1024.4
20210514153028 58 334 11.0 21.0 0.00 0.00 0.00 48 1024.4
20210514152526 57 18 12.0 21.0 0.00 0.00 0.00 48 1024.4
20210514152024 57 13 12.0 20.0 0.00 0.00 0.00 48 1024.4
20210514151519 57 16 12.0 18.0 0.00 0.00 0.00 48 1024.5
20210514151015 57 12 12.0 18.0 0.00 0.00 0.00 47 1024.5
20210514150515 56 319 11.0 17.0 0.00 0.00 0.00 49 1024.5
20210514150017 57 325 11.0 16.0 0.00 0.00 0.00 48 1024.5
20210514145513 56 329 11.0 17.0 0.00 0.00 0.00 50 1024.5
20210514145014 56 7 11.0 17.0 0.00 0.00 0.00 49 1024.4
20210514144510 56 337 11.0 17.0 0.00 0.00 0.00 49 1024.5
20210514144010 56 20 11.0 16.0 0.00 0.00 0.00 50 1024.5
20210514143509 55 344 10.0 16.0 0.00 0.00 0.00 49 1024.4
20210514143006 55 13 10.0 16.0 0.00 0.00 0.00 50 1024.4
20210514142505 55 349 11.0 16.0 0.00 0.00 0.00 51 1024.5
20210514142000 54 359 12.0 18.0 0.00 0.00 0.00 52 1024.4
20210514141459 54 340 12.0 18.0 0.00 0.00 0.00 52 1024.5
20210514140956 54 329 12.0 17.0 0.00 0.00 0.00 52 1024.4
20210514140455 54 344 12.0 16.0 0.00 0.00 0.00 52 1024.4
20210514135954 53 14 11.0 16.0 0.00 0.00 0.00 52 1024.5
20210514135454 53 6 12.0 17.0 0.00 0.00 0.00 53 1024.5
20210514134954 52 1 14.0 19.0 0.00 0.00 0.00 54 1024.5
20210514134453 52 31 14.0 19.0 0.00 0.00 0.00 54 1024.5
20210514133951 52 18 13.0 18.0 0.00 0.00 0.00 54 1024.4
20210514133453 52 20 14.0 19.0 0.00 0.00 0.00 53 1024.6
20210514132948 52 17 13.0 19.0 0.00 0.00 0.00 53 1024.5
20210514132451 53 356 13.0 20.0 0.00 0.00 0.00 52 1024.5
20210514131947 52 20 14.0 20.0 0.00 0.00 0.00 54 1024.5
20210514131450 52 14 13.0 20.0 0.00 0.00 0.00 53 1024.6
20210514130947 52 15 13.0 20.0 0.00 0.00 0.00 52 1024.5
20210514130445 52 42 14.0 20.0 0.00 0.00 0.00 53 1024.5
20210514125945 51 11 14.0 22.0 0.00 0.00 0.00 53 1024.5
20210514125443 52 4 14.0 22.0 0.00 0.00 0.00 53 1024.4
20210514124942 52 329 14.0 19.0 0.00 0.00 0.00 52 1024.3
20210514124441 52 350 14.0 18.0 0.00 0.00 0.00 52 1024.3
20210514123940 52 9 12.0 17.0 0.00 0.00 0.00 52 1024.3
20210514123437 52 8 11.0 17.0 0.00 0.00 0.00 53 1024.3
20210514122936 52 330 12.0 17.0 0.00 0.00 0.00 53 1024.3
20210514122433 51 4 12.0 17.0 0.00 0.00 0.00 53 1024.3
20210514121931 51 25 12.0 16.0 0.00 0.00 0.00 52 1024.2
20210514121433 51 11 12.0 16.0 0.00 0.00 0.00 53 1024.2
20210514120934 51 18 12.0 16.0 0.00 0.00 0.00 53 1024.2
20210514120432 51 18 10.0 17.0 0.00 0.00 0.00 52 1024.2
20210514115930 51 13 10.0 17.0 0.00 0.00 0.00 53 1024.2
20210514115428 51 30 10.0 15.0 0.00 0.00 0.00 53 1024.0
20210514114926 51 15 10.0 15.0 0.00 0.00 0.00 52 1024.2
20210514114425 51 11 10.0 14.0 0.00 0.00 0.00 53 1024.0
20210514113925 50 16 10.0 14.0 0.00 0.00 0.00 53 1024.0
20210514113418 50 14 10.0 14.0 0.00 0.00 0.00 53 1023.9
20210514112915 50 13 10.0 14.0 0.00 0.00 0.00 53 1023.9
20210514112413 50 354 11.0 14.0 0.00 0.00 0.00 52 1023.9
20210514111914 50 358 11.0 14.0 0.00 0.00 0.00 52 1023.8
20210514111415 50 15 11.0 14.0 0.00 0.00 0.00 53 1023.8
20210514110911 50 15 11.0 15.0 0.00 0.00 0.00 53 1023.8
20210514110411 50 20 12.0 15.0 0.00 0.00 0.00 53 1023.8
20210514105912 49 6 12.0 15.0 0.00 0.00 0.00 53 1023.7
20210514105409 49 17 12.0 16.0 0.00 0.00 0.00 54 1023.8
20210514104909 48 23 12.0 16.0 0.00 0.00 0.00 55 1023.8
20210514104410 48 20 12.0 15.0 0.00 0.00 0.00 56 1023.7
20210514103907 48 20 13.0 17.0 0.00 0.00 0.00 57 1023.6
20210514103409 47 23 12.0 17.0 0.00 0.00 0.00 57 1023.6
20210514102909 47 14 12.0 15.0 0.00 0.00 0.00 58 1023.6
20210514102403 47 18 12.0 16.0 0.00 0.00 0.00 58 1023.5
20210514101905 47 17 12.0 16.0 0.00 0.00 0.00 58 1023.4
20210514101404 47 18 12.0 14.0 0.00 0.00 0.00 58 1023.3
20210514100901 47 15 12.0 15.0 0.00 0.00 0.00 57 1023.4
20210514100400 47 15 12.0 15.0 0.00 0.00 0.00 57 1023.3
20210514095900 47 19 11.0 14.0 0.00 0.00 0.00 56 1023.3
20210514095400 48 15 11.0 13.0 0.00 0.00 0.00 56 1023.2
20210514094852 48 21 11.0 13.0 0.00 0.00 0.00 55 1023.2
20210514094351 48 16 11.0 13.0 0.00 0.00 0.00 55 1023.2
20210514093855 49 18 11.0 13.0 0.00 0.00 0.00 54 1023.2
20210514093355 49 13 11.0 13.0 0.00 0.00 0.00 53 1023.1
20210514092849 49 20 11.0 13.0 0.00 0.00 0.00 53 1023.2
20210514092348 49 18 11.0 13.0 0.00 0.00 0.00 54 1023.1
20210514091847 49 14 11.0 13.0 0.00 0.00 0.00 54 1023.1
20210514091344 49 15 11.0 13.0 0.00 0.00 0.00 54 1023.2
20210514090845 49 13 11.0 13.0 0.00 0.00 0.00 54 1023.1
20210514090343 49 15 11.0 12.0 0.00 0.00 0.00 54 1023.2
20210514085846 49 18 11.0 12.0 0.00 0.00 0.00 54 1023.1
20210514085342 49 17 11.0 13.0 0.00 0.00 0.00 54 1023.1
20210514084843 49 16 11.0 13.0 0.00 0.00 0.00 54 1023.1
20210514084345 49 18 11.0 13.0 0.00 0.00 0.00 53 1023.0
20210514083844 49 15 11.0 12.0 0.00 0.00 0.00 54 1023.1
20210514083343 49 16 11.0 13.0 0.00 0.00 0.00 54 1023.1
20210514082841 49 20 10.0 13.0 0.00 0.00 0.00 54 1023.1
20210514082339 49 18 11.0 13.0 0.00 0.00 0.00 53 1023.1
20210514081836 49 19 11.0 13.0 0.00 0.00 0.00 53 1023.1
20210514081336 49 17 11.0 13.0 0.00 0.00 0.00 53 1023.1
20210514080837 49 15 10.0 12.0 0.00 0.00 0.00 53 1023.1
20210514080335 49 15 10.0 12.0 0.00 0.00 0.00 53 1023.1
20210514075833 49 15 11.0 12.0 0.00 0.00 0.00 53 1023.0
20210514075333 49 18 11.0 13.0 0.00 0.00 0.00 53 1023.0
20210514074833 49 21 11.0 13.0 0.00 0.00 0.00 53 1023.0
20210514074326 49 18 11.0 13.0 0.00 0.00 0.00 53 1023.0
20210514073823 49 15 11.0 13.0 0.00 0.00 0.00 53 1022.9
20210514073322 49 20 11.0 13.0 0.00 0.00 0.00 53 1022.9
20210514072819 49 25 11.0 13.0 0.00 0.00 0.00 52 1022.9
20210514072317 49 16 11.0 13.0 0.00 0.00 0.00 52 1022.9